Погода в Занино-Починках

Россия / Рязанская область     54°36′29″N   41°16′48″E
темп.,
°C
ветер,
м/с
пор.,
м/с
влажн.,
%
обл.,
%
осадки,
мм/ч
давл.,
гПа
погр.,
м
22 апреля, чт
чт2200:00+5ююз3987100 0.0 1015394
03:00+5ю2593100 0.0 1015158
06:00+5зюз2697100 0.6 1016722
09:00+7юз457573 0.6 1018901
12:00+11юз465883 0.2 10191645
15:00+12юз475895 0.3 10191726
18:00+11ююз38685 0.0 1019779
21:00+7ююв310855 0.0 1020184
23 апреля, пт
пт2300:00+7ююв312805 0.0 1020242
03:00+6ю310825 0.0 1019197
06:00+7ю31177100 0.0 1020244
09:00+13ю4105787 0.0 1020581
12:00+15ю4747100 0.0 10192198
15:00+16ю574379 0.0 10182196
18:00+14ююв49535 0.0 1016722
21:00+9юв3107599 0.0 1016205
24 апреля, сб
сб2400:00+9юв412815 0.1 1014291
03:00+8юв412898 0.2 1012313
06:00+8ююв5138865 0.1 1010463
09:00+11ю51074100 0.6 10091057
12:00+5з5790100 0.7 1009528
15:00+5з3893100 4.8 1009762
18:00+6зсз3680100 0.3 1009984
21:00+4юз2389100 0.3 100947
25 апреля, вс
вс2500:00+2зюз310840 0.1 1009241
03:00+1зюз3108812 0.1 1010269
06:00+1зюз411895 0.0 1010399
09:00+5зюз697013 0.0 10111121
12:00+8зюз6853100 0.6 10111910
15:00+8зюз695690 1.9 10112038
18:00+6зюз59584 0.8 10121130
21:00+3юз3117939 0.8 1013299
26 апреля, пн
пн2600:00+1юз38825 0.0 1014158
03:000ююз26885 0.0 1013137
06:00+1ююз39865 0.0 1014293
09:00+6юз57605 0.0 10131253
12:00+8зюз574895 0.4 10121912
15:00+8зюз585084 1.1 10111834
18:00+7зюз475554 0.4 10111047
21:00+2юз2579100 0.6 101194